Location: Newark
(47.5833°N, 8.1500°E)
Time: 03:05:00
(UTC+00:00)

Vanguard 1 - Pass Details

Date: 30 October 2020
Orbit: 650 x 3833 km, 34.2° (Epoch: 26 November)

Event Time Altitude Azimuth Distance (km) Brightness Sun altitude
Rises 07:44:43 0° 163° (SSE) 6,752 15.3 13.2°
Reaches altitude 10° 07:56:41 10° 130° (SE) 6,549 17.5 14.8°
Maximum altitude 07:59:45 10° 122° (ESE) 6,646 16.6 15.1°
Drops below altitude 10° 08:02:55 10° 113° (ESE) 6,800 16.0 15.5°
Sets 08:16:48 0° 83° (E) 7,944 15.2 17.2°
